GW5592 Weather Reports


time (UTC)temp
F
wind
direction
speed
knots
gust
knots
rain 1hr
in
rain 24hr
in
rain mn
in
humidity
%
barometer
mb
20260508110017 66 281 3.5 10.4 0.00 0.00 0.00 51 1013.2
20260508105506 65 253 4.3 10.4 0.00 0.00 0.00 57 1013.2
20260508105009 63 298 2.6 10.4 0.00 0.00 0.00 58 1013.3
20260508104524 63 250 6.1 10.4 0.00 0.00 0.00 56 1013.4
20260508104011 63 259 5.2 10.4 0.00 0.00 0.00 56 1013.3
20260508103507 64 233 5.2 10.4 0.00 0.00 0.00 55 1013.3
20260508103027 64 199 1.7 7.8 0.00 0.00 0.00 55 1013.2
20260508102512 64 211 2.6 9.6 0.00 0.00 0.00 56 1013.2
20260508102010 64 273 3.5 9.6 0.00 0.00 0.00 54 1013.2
20260508101536 65 237 4.3 8.7 0.00 0.00 0.00 52 1013.2
20260508101010 66 237 3.5 7.8 0.00 0.00 0.00 50 1013.1
20260508100510 66 150 1.7 7.8 0.00 0.00 0.00 51 1013.2
20260508100034 66 178 3.5 7.8 0.00 0.00 0.00 50 1013.2
20260508095511 65 154 1.7 7.0 0.00 0.00 0.00 52 1013.2
20260508095007 65 229 1.7 10.4 0.00 0.00 0.00 53 1013.2
20260508094519 65 198 3.5 10.4 0.00 0.00 0.00 53 1013.2
20260508094009 64 220 2.6 8.7 0.00 0.00 0.00 53 1013.2
20260508093510 64 267 4.3 8.7 0.00 0.00 0.00 54 1013.2
20260508093025 65 155 1.7 6.1 0.00 0.00 0.00 55 1013.2
20260508092506 64 202 1.7 8.7 0.00 0.00 0.00 56 1013.2
20260508092009 63 221 3.5 8.7 0.00 0.00 0.00 56 1013.3
20260508091528 63 153 1.7 7.8 0.00 0.00 0.00 59 1013.2
20260508091015 63 213 3.5 7.8 0.00 0.00 0.00 57 1013.2
20260508090517 63 188 2.6 7.8 0.00 0.00 0.00 57 1013.2
20260508090011 63 202 2.6 10.4 0.00 0.00 0.00 57 1013.2
20260508085508 62 259 4.3 10.4 0.00 0.00 0.00 59 1013.2
20260508085007 62 197 1.7 7.0 0.00 0.00 0.00 63 1013.2
20260508084518 61 261 0.9 4.3 0.00 0.00 0.00 64 1013.2
20260508084007 60 191 1.7 5.2 0.00 0.00 0.00 64 1013.1
20260508083509 60 245 2.6 5.2 0.00 0.00 0.00 64 1013.3
20260508083025 60 252 0.9 3.5 0.00 0.00 0.00 64 1013.2
20260508082505 60 200 0.0 1.7 0.00 0.00 0.00 66 1013.2
20260508082003 59 230 0.0 3.5 0.00 0.00 0.00 66 1013.3
20260508081504 59 121 0.9 3.5 0.00 0.00 0.00 68 1013.3
20260508081004 58 233 0.9 3.5 0.00 0.00 0.00 66 1013.4
20260508080503 59 241 0.0 1.7 0.00 0.00 0.00 70 1013.5
20260508080012 58 271 0.9 2.6 0.00 0.00 0.00 70 1013.6
20260508075509 58 223 0.9 2.6 0.00 0.00 0.00 69 1013.6
20260508075011 58 73 0.0 1.7 0.00 0.00 0.00 69 1013.6
20260508074518 57 88 0.0 1.7 0.00 0.00 0.00 68 1013.7
20260508074007 57 103 0.0 1.7 0.00 0.00 0.00 71 1013.7
20260508073511 57 9 0.0 1.7 0.00 0.00 0.00 71 1013.6
20260508073022 56 30 0.9 1.7 0.00 0.00 0.00 73 1013.6
20260508072508 56 317 0.0 5.2 0.00 0.00 0.00 73 1013.6
20260508072007 56 304 0.9 5.2 0.00 0.00 0.00 72 1013.6
20260508071505 55 289 1.7 5.2 0.00 0.00 0.00 74 1013.6
20260508071003 55 313 0.9 1.7 0.00 0.00 0.00 75 1013.6
20260508070503 54 238 0.0 1.7 0.00 0.00 0.00 76 1013.5
20260508070010 54 33 0.0 2.6 0.00 0.00 0.00 78 1013.5
20260508065503 53 54 0.0 2.6 0.00 0.00 0.00 78 1013.4
20260508065007 53 22 0.0 2.6 0.00 0.00 0.00 79 1013.2
20260508064540 53 34 0.9 4.3 0.00 0.00 0.00 80 1013.0
20260508064008 52 74 0.9 4.3 0.00 0.00 0.00 80 1013.0
20260508063509 52 56 1.7 3.5 0.00 0.00 0.00 81 1013.0
20260508063021 52 54 0.9 2.6 0.00 0.00 0.00 81 1012.8
20260508062511 52 9 0.0 3.5 0.00 0.00 0.00 81 1012.7
20260508062009 51 53 0.9 3.5 0.00 0.00 0.00 81 1012.6
20260508061523 51 30 0.9 2.6 0.00 0.00 0.00 81 1012.6
20260508061011 51 30 0.9 1.7 0.00 0.00 0.00 81 1012.7
20260508060508 51 80 0.0 0.9 0.00 0.00 0.00 81 1012.7
20260508060005 51 74 0.0 0.0 0.00 0.00 0.00 82 1012.7
20260508055503 50 43 0.0 0.0 0.00 0.00 0.00 83 1012.9
20260508055003 50 43 0.0 0.0 0.00 0.00 0.00 83 1013.0
20260508054518 50 43 0.0 0.0 0.00 0.00 0.00 83 1013.1
20260508054003 50 43 0.0 0.0 0.00 0.00 0.00 83 1013.2
20260508053507 50 43 0.0 0.0 0.00 0.00 0.00 83 1013.1
20260508053018 50 43 0.0 0.0 0.00 0.00 0.00 83 1013.1
20260508052511 50 47 0.0 0.0 0.00 0.00 0.00 82 1013.0
20260508052007 50 360 0.0 0.0 0.00 0.00 0.00 82 1013.0
20260508051525 50 360 0.0 0.0 0.00 0.00 0.00 82 1012.9
20260508051007 51 63 0.0 0.0 0.00 0.00 0.00 82 1012.8
20260508050509 50 80 0.0 0.0 0.00 0.00 0.00 82 1012.6
20260508050035 50 75 0.0 0.0 0.00 0.00 0.00 82 1012.8
20260508045506 50 35 0.0 0.0 0.00 0.00 0.00 82 1013.0
20260508045007 51 65 0.0 0.0 0.00 0.00 0.00 82 1013.0
20260508044509 50 38 0.0 0.0 0.00 0.00 0.00 82 1013.0
20260508044005 50 30 0.0 0.0 0.00 0.00 0.00 83 1013.0
20260508043505 50 24 0.0 0.0 0.00 0.00 0.00 83 1013.0
20260508043015 50 25 0.0 0.0 0.00 0.00 0.00 83 1013.1
20260508042509 50 26 0.0 0.0 0.00 0.00 0.00 83 1012.9
20260508042007 50 24 0.0 0.0 0.00 0.00 0.00 83 1012.7
20260508041521 50 55 0.0 0.0 0.00 0.00 0.00 82 1012.8
20260508041007 50 58 0.0 0.0 0.00 0.00 0.00 82 1012.7
20260508040510 50 58 0.0 0.0 0.00 0.00 0.00 82 1012.7
20260508040025 49 58 0.0 0.0 0.00 0.00 0.00 83 1012.7
20260508035508 49 58 0.0 0.9 0.00 0.00 0.00 83 1012.8
20260508035007 49 32 0.0 1.7 0.00 0.00 0.00 82 1012.8
20260508034530 49 38 0.0 1.7 0.00 0.00 0.00 82 1012.7
20260508034009 50 38 0.0 1.7 0.00 0.00 0.00 82 1012.5
20260508033507 50 66 0.0 0.0 0.00 0.00 0.00 82 1012.6
20260508033014 50 63 0.0 1.7 0.00 0.00 0.00 82 1012.7
20260508032504 50 63 0.0 1.7 0.00 0.00 0.00 82 1012.7
20260508032008 50 67 0.0 1.7 0.00 0.00 0.00 82 1012.7
20260508031519 50 61 0.0 1.7 0.00 0.00 0.00 81 1012.5
20260508031008 51 118 0.0 1.7 0.00 0.00 0.00 80 1012.5
20260508030515 51 186 0.0 2.6 0.00 0.00 0.00 79 1012.5
20260508030026 51 254 0.9 2.6 0.00 0.00 0.00 80 1012.6
20260508025508 50 271 0.9 3.5 0.00 0.00 0.00 82 1012.6
20260508025006 50 275 1.7 3.5 0.00 0.00 0.00 83 1012.5
20260508024526 49 319 0.0 1.7 0.00 0.00 0.00 84 1012.4
20260508024010 49 40 0.0 1.7 0.00 0.00 0.00 84 1012.3
20260508023510 50 34 0.9 1.7 0.00 0.00 0.00 84 1012.2
20260508023028 50 17 0.0 1.7 0.00 0.00 0.00 84 1012.1
20260508022510 50 37 0.0 1.7 0.00 0.00 0.00 83 1012.2
20260508022009 50 37 0.0 1.7 0.00 0.00 0.00 83 1012.2
20260508021516 51 42 0.0 1.7 0.00 0.00 0.00 83 1012.1
20260508021008 51 55 0.9 1.7 0.00 0.00 0.00 83 1012.0
20260508020509 51 49 0.0 0.9 0.00 0.00 0.00 83 1012.0
20260508020017 51 9 0.0 0.0 0.00 0.00 0.00 83 1012.2
20260508015508 51 9 0.0 0.0 0.00 0.00 0.00 83 1012.2
20260508015012 51 9 0.0 0.0 0.00 0.00 0.00 83 1012.1
20260508014524 51 34 0.0 0.0 0.00 0.00 0.00 83 1012.1
20260508014013 51 39 0.0 1.7 0.00 0.00 0.00 83 1012.2
20260508013506 51 5 0.0 1.7 0.00 0.00 0.00 83 1012.3
20260508013027 51 22 0.9 1.7 0.00 0.00 0.00 82 1012.1
20260508012515 52 36 0.0 1.7 0.00 0.00 0.00 82 1012.4
20260508012012 52 34 0.0 1.7 0.00 0.00 0.00 82 1012.4
20260508011535 52 38 0.0 0.9 0.00 0.00 0.00 82 1012.4
20260508011011 52 15 0.0 0.0 0.00 0.00 0.00 82 1012.5
20260508010508 52 15 0.0 1.7 0.00 0.00 0.00 82 1012.5
20260508010026 52 15 0.0 1.7 0.00 0.00 0.00 82 1012.7
20260508005506 52 42 0.0 1.7 0.00 0.00 0.00 81 1012.7
20260508005009 52 46 0.0 1.7 0.00 0.00 0.00 81 1012.8
20260508004534 53 56 0.0 1.7 0.00 0.00 0.00 81 1013.0
20260508004011 53 57 0.0 1.7 0.00 0.00 0.00 81 1013.1
20260508003509 53 76 0.0 1.7 0.00 0.00 0.00 80 1013.3
20260508003024 53 72 0.0 1.7 0.00 0.00 0.00 80 1013.4
20260508002507 53 72 0.0 1.7 0.00 0.00 0.00 79 1013.5
20260508002010 53 36 0.0 1.7 0.00 0.00 0.00 79 1013.5
20260508001529 53 53 0.0 1.7 0.00 0.00 0.00 79 1013.7
20260508001009 54 42 0.0 1.7 0.00 0.00 0.00 78 1013.7
20260508000515 54 55 0.0 1.7 0.00 0.00 0.00 78 1013.8
20260508000030 54 352 0.0 0.9 0.00 0.00 0.00 78 1013.8
20260507235506 54 342 0.0 1.7 0.00 0.00 0.00 79 1013.9
20260507235010 53 330 0.0 1.7 0.00 0.00 0.00 79 1013.8
20260507234524 53 252 0.0 1.7 0.00 0.00 0.00 79 1013.8
20260507234006 53 252 0.0 0.0 0.00 0.00 0.00 79 1013.8
20260507233504 53 229 0.0 0.0 0.00 0.00 0.00 79 1013.7
20260507233005 54 229 0.0 0.0 0.00 0.00 0.00 79 1013.6
20260507232503 53 229 0.0 1.7 0.00 0.00 0.00 79 1013.5
20260507232003 53 229 0.0 1.7 0.00 0.00 0.00 80 1013.5
20260507231508 54 229 0.0 1.7 0.00 0.00 0.00 79 1013.5
20260507231003 54 229 0.0 1.7 0.00 0.00 0.00 79 1013.5
20260507230504 54 14 0.0 1.7 0.00 0.00 0.00 79 1013.4
20260507230011 54 98 0.0 0.0 0.00 0.00 0.00 78 1013.5
20260507225503 55 98 0.0 0.0 0.00 0.00 0.00 78 1013.5
20260507225008 54 94 0.0 1.7 0.00 0.00 0.00 78 1013.5
20260507224522 54 62 0.0 1.7 0.00 0.00 0.00 78 1013.5
20260507224010 54 40 0.0 1.7 0.00 0.00 0.00 78 1013.5
20260507223506 54 37 0.0 3.5 0.00 0.00 0.00 78 1013.5
20260507223024 54 51 0.0 3.5 0.00 0.00 0.00 78 1013.5
20260507222502 55 48 0.0 4.3 0.00 0.00 0.00 78 1013.5
20260507222004 55 36 1.7 4.3 0.00 0.00 0.00 77 1013.6
20260507221503 55 37 0.9 3.5 0.00 0.00 0.00 77 1013.7
20260507221004 55 54 1.7 3.5 0.00 0.00 0.00 77 1013.7
20260507220505 55 47 1.7 4.3 0.00 0.00 0.00 77 1013.7
20260507220012 55 49 0.9 7.0 0.00 0.00 0.00 77 1013.7
20260507215506 55 56 2.6 7.0 0.00 0.00 0.00 76 1013.7
20260507215007 55 67 1.7 5.2 0.00 0.00 0.00 76 1013.7
20260507214520 55 47 1.7 4.3 0.00 0.00 0.00 75 1013.8
20260507214007 55 80 1.7 7.8 0.00 0.00 0.00 75 1013.9
20260507213508 56 48 2.6 7.8 0.00 0.00 0.00 74 1013.9
20260507213019 56 78 2.6 7.8 0.00 0.00 0.00 74 1013.9
20260507212508 56 43 3.5 7.8 0.00 0.00 0.00 74 1013.8
20260507212017 56 75 3.5 7.8 0.00 0.00 0.00 73 1014.0
20260507211527 56 42 2.6 7.8 0.00 0.00 0.00 73 1013.9
20260507211004 56 5 2.6 6.1 0.00 0.00 0.00 72 1013.9
20260507210502 57 59 0.9 7.0 0.00 0.00 0.00 70 1013.9
20260507210007 57 52 3.5 8.7 0.00 0.00 0.00 69 1013.8
20260507205504 58 95 1.7 8.7 0.00 0.00 0.00 68 1013.8
20260507205007 58 90 1.7 5.2 0.00 0.00 0.00 68 1013.7
20260507204511 58 86 2.6 5.2 0.00 0.00 0.00 68 1013.5
20260507204009 58 20 1.7 4.3 0.00 0.00 0.00 67 1013.5
20260507203509 59 51 0.9 3.5 0.00 0.00 0.00 67 1013.5
20260507203017 59 61 0.9 1.7 0.00 0.00 0.00 65 1013.5
20260507202506 60 92 0.0 1.7 0.00 0.00 0.00 65 1013.4
20260507202015 60 104 0.0 1.7 0.00 0.00 0.00 66 1013.4
20260507201520 60 101 0.0 1.7 0.00 0.00 0.00 66 1013.2
20260507201007 59 103 0.9 1.7 0.00 0.00 0.00 66 1013.1
20260507200509 59 98 0.0 1.7 0.00 0.00 0.00 65 1013.1
20260507200005 59 92 0.9 1.7 0.00 0.00 0.00 65 1012.9
20260507195502 59 85 0.0 1.7 0.00 0.00 0.00 65 1012.8
20260507195005 59 298 0.0 3.5 0.00 0.00 0.00 65 1012.8
20260507194510 59 254 0.9 3.5 0.00 0.00 0.00 66 1012.6
20260507194005 59 172 0.0 4.3 0.00 0.00 0.00 66 1012.4
20260507193506 59 218 1.7 5.2 0.00 0.00 0.00 66 1012.3
20260507193019 60 231 0.0 5.2 0.00 0.00 0.00 66 1012.2
20260507192506 60 183 0.0 5.2 0.00 0.00 0.00 66 1012.2
20260507192007 60 183 1.7 6.1 0.00 0.00 0.00 65 1012.0
20260507191520 60 144 0.9 6.1 0.00 0.00 0.00 64 1011.9
20260507191008 61 230 2.6 7.0 0.00 0.00 0.00 64 1011.8
20260507190509 61 247 2.6 7.0 0.00 0.00 0.00 64 1011.7
20260507190022 61 197 2.6 7.0 0.00 0.00 0.00 64 1011.5
20260507185507 61 159 1.7 7.8 0.00 0.00 0.00 63 1011.3
20260507185012 62 220 2.6 7.8 0.00 0.00 0.00 62 1011.2
20260507184507 62 109 2.6 8.7 0.00 0.00 0.00 62 1011.2
20260507184006 62 148 2.6 8.7 0.00 0.00 0.00 61 1011.2
20260507183507 63 211 3.5 9.6 0.00 0.00 0.00 60 1011.1
20260507183013 63 226 4.3 9.6 0.00 0.00 0.00 60 1011.0
20260507182506 63 216 2.6 9.6 0.00 0.00 0.00 58 1010.9
20260507182007 64 230 3.5 9.6 0.00 0.00 0.00 57 1010.9
20260507181518 64 223 0.9 6.1 0.00 0.00 0.00 56 1010.8
20260507181012 65 172 1.7 7.0 0.00 0.00 0.00 55 1010.7
20260507180509 65 162 2.6 7.0 0.00 0.00 0.00 54 1010.7
20260507180022 65 240 3.5 8.7 0.00 0.00 0.00 54 1010.7
20260507175511 66 231 3.5 8.7 0.00 0.00 0.00 54 1010.6
20260507175009 66 217 3.5 8.7 0.00 0.00 0.00 52 1010.6
20260507174542 66 209 1.7 7.0 0.00 0.00 0.00 52 1010.6
20260507174017 66 242 2.6 9.6 0.00 0.00 0.00 51 1010.6
20260507173507 66 214 1.7 9.6 0.00 0.00 0.00 53 1010.6
20260507173013 66 155 1.7 7.0 0.00 0.00 0.00 54 1010.6
20260507172506 67 183 2.6 7.0 0.00 0.00 0.00 51 1010.5
20260507172008 67 180 2.6 6.1 0.00 0.00 0.00 52 1010.4
20260507171511 67 149 0.9 6.1 0.00 0.00 0.00 52 1010.5
20260507171007 68 138 2.6 6.1 0.00 0.00 0.00 51 1010.6
20260507170509 67 179 1.7 6.1 0.00 0.00 0.00 51 1010.5
20260507170020 68 146 1.7 6.1 0.00 0.00 0.00 51 1010.6
20260507165510 67 213 1.7 6.1 0.00 0.00 0.00 52 1010.4
20260507165010 68 181 0.9 9.6 0.00 0.00 0.00 53 1010.4
20260507164525 67 188 2.6 9.6 0.00 0.00 0.00 53 1010.4
20260507164006 68 198 1.7 11.3 0.00 0.00 0.00 50 1010.4
20260507163508 68 132 2.6 11.3 0.00 0.00 0.00 52 1010.3
20260507163027 68 259 3.5 9.6 0.00 0.00 0.00 50 1010.4
20260507162511 68 135 1.7 9.6 0.00 0.00 0.00 51 1010.4
20260507162005 68 177 3.5 8.7 0.00 0.00 0.00 50 1010.3
20260507161511 68 225 4.3 7.8 0.00 0.00 0.00 50 1010.3
20260507161008 68 192 3.5 9.6 0.00 0.00 0.00 49 1010.3
20260507160508 68 116 1.7 9.6 0.00 0.00 0.00 49 1010.2
20260507160018 68 253 3.5 8.7 0.00 0.00 0.00 51 1010.3
20260507155508 68 212 0.9 4.3 0.00 0.00 0.00 51 1010.3
20260507155010 68 168 0.9 5.2 0.00 0.00 0.00 55 1010.3
20260507154523 68 131 0.9 5.2 0.00 0.00 0.00 58 1010.3
20260507154010 68 199 2.6 5.2 0.00 0.00 0.00 61 1010.4
20260507153508 67 171 0.9 6.1 0.00 0.00 0.00 62 1010.4
20260507153028 67 146 0.0 6.1 0.00 0.00 0.00 64 1010.4
20260507152510 65 180 0.9 6.1 0.00 0.00 0.00 67 1010.4
20260507152009 63 133 0.0 2.6 0.00 0.00 0.00 66 1010.4
20260507151528 63 196 0.0 1.7 0.00 0.00 0.00 70 1010.5
20260507151005 63 136 0.0 1.7 0.00 0.00 0.00 68 1010.5
20260507150506 63 139 0.0 1.7 0.00 0.00 0.00 69 1010.6
20260507150017 63 161 0.0 1.7 0.00 0.00 0.00 69 1010.6
20260507145507 63 138 0.0 1.7 0.00 0.00 0.00 70 1010.6
20260507145013 63 119 0.9 2.6 0.00 0.00 0.00 69 1010.7
20260507144522 62 104 0.9 2.6 0.00 0.00 0.00 72 1010.7
20260507144010 61 96 1.7 2.6 0.00 0.00 0.00 72 1010.8
20260507143508 61 86 0.9 2.6 0.00 0.00 0.00 71 1010.9
20260507143027 61 93 0.9 2.6 0.00 0.00 0.00 71 1010.9
20260507142510 61 96 0.9 1.7 0.00 0.00 0.00 73 1010.9
20260507142011 61 96 0.9 1.7 0.00 0.00 0.00 73 1011.0
20260507141525 60 124 0.0 1.7 0.00 0.00 0.00 73 1011.1
20260507141003 60 138 0.0 1.7 0.00 0.00 0.00 76 1011.2
20260507140506 60 136 0.0 1.7 0.00 0.00 0.00 74 1011.2
20260507140031 60 108 0.0 1.7 0.00 0.00 0.00 71 1011.3
20260507135507 61 181 0.0 2.6 0.00 0.00 0.00 70 1011.3
20260507135011 62 152 0.0 7.0 0.00 0.00 0.00 63 1011.2
20260507134517 62 163 0.9 7.8 0.00 0.00 0.00 61 1011.3
20260507134006 63 273 3.5 7.8 0.00 0.00 0.00 58 1011.2
20260507133509 64 157 2.6 6.1 0.00 0.00 0.00 55 1011.4
20260507133024 63 242 1.7 7.0 0.00 0.00 0.00 54 1011.3
20260507132509 64 302 3.5 8.7 0.00 0.00 0.00 53 1011.3
20260507132009 65 246 3.5 8.7 0.00 0.00 0.00 50 1011.3
20260507131508 65 288 2.6 8.7 0.00 0.00 0.00 52 1011.3
20260507131007 65 323 1.7 9.6 0.00 0.00 0.00 51 1011.4
20260507130507 64 273 5.2 9.6 0.00 0.00 0.00 51 1011.3
20260507130009 64 277 1.7 8.7 0.00 0.00 0.00 55 1011.4
20260507125507 65 296 3.5 8.7 0.00 0.00 0.00 53 1011.5
20260507125006 64 283 3.5 10.4 0.00 0.00 0.00 53 1011.6
20260507124520 64 288 5.2 10.4 0.00 0.00 0.00 54 1011.7
20260507124007 63 271 4.3 9.6 0.00 0.00 0.00 55 1011.7
20260507123510 63 278 4.3 12.2 0.00 0.00 0.00 55 1011.8
20260507123027 63 298 6.1 12.2 0.00 0.00 0.00 57 1011.9
20260507122517 63 234 6.1 12.2 0.00 0.00 0.00 54 1012.0
20260507122011 63 241 3.5 11.3 0.00 0.00 0.00 52 1012.0
20260507121526 63 259 3.5 7.0 0.00 0.00 0.00 54 1012.0
20260507121009 63 207 3.5 6.1 0.00 0.00 0.00 54 1012.0
20260507120510 63 182 2.6 10.4 0.00 0.00 0.00 54 1012.1
20260507120022 63 161 2.6 10.4 0.00 0.00 0.00 54 1012.2
20260507115506 63 218 3.5 8.7 0.00 0.00 0.00 53 1012.3
20260507115005 63 248 3.5 7.8 0.00 0.00 0.00 53 1012.3
20260507114512 63 188 2.6 7.8 0.00 0.00 0.00 50 1012.4
20260507114010 63 244 3.5 11.3 0.00 0.00 0.00 52 1012.5
20260507113508 63 237 4.3 11.3 0.00 0.00 0.00 52 1012.5
20260507113049 63 144 3.5 10.4 0.00 0.00 0.00 53 1012.5
20260507112511 63 184 3.5 8.7 0.00 0.00 0.00 53 1012.5
20260507112011 64 180 3.5 8.7 0.00 0.00 0.00 52 1012.5
20260507111526 62 245 4.3 8.7 0.00 0.00 0.00 53 1012.4
20260507111010 63 266 3.5 8.7 0.00 0.00 0.00 51 1012.5
20260507110508 63 226 2.6 6.1 0.00 0.00 0.00 55 1012.5